Погода в Новогригоровке Второй

Украина / Кировоградская область     48°03′57″N   32°55′58″E
темп.,
°C
ветер,
м/с
пор.,
м/с
влажн.,
%
обл.,
%
осадки,
мм/ч
давл.,
гПа
погр.,
м
23 апреля, пт
пт2300:00+8ююз410862 0.0 1020213
03:00+7ю4118716 0.0 1019236
06:00+7ю5128897 0.0 1019267
09:00+11ю71471100 0.0 1018566
12:00+17ююз9115050 0.0 10171655
15:00+15ююз101354100 1.1 10161704
18:00+11зюз6987100 5.0 1015601
21:00+7ссз6887100 9.6 1017590
24 апреля, сб
сб2400:00+6ссз488589 1.6 1018525
03:00+4з39940 1.6 1018243
06:00+3з410895 0.0 1019251
09:00+8зсз68580 0.0 1020910
12:00+11зсз81047100 0.0 10202285
15:00+10зсз8104596 0.1 10202054
18:00+10сз6103917 0.0 10212532
21:00+6зсз23492 0.0 102322
25 апреля, вс
вс2500:00+4сз22585 0.0 102317
03:00+3з22625 0.0 102311
06:00+3юз22655 0.0 102210
09:00+8ююз34505 0.0 1022469
12:00+12юз454071 0.0 10201870
15:00+13юз6647100 0.0 10181920
18:00+12ююз465765 0.0 10171190
21:00+8зсз71083100 0.3 1018550
26 апреля, пн
пн2600:00+7ссз3487100 0.4 1018211
03:00+6с3388100 1.2 1018272
06:00+4ссв4593100 3.8 1017553
09:00+6св2475100 5.4 1018668
12:00+8зсз346499 0.4 10181364
15:00+11зсз574485 0.9 10172155
18:00+11зсз573728 0.0 10162363
21:00+6з335645 0.0 101739
27 апреля, вт
вт2700:00+5зюз34605 0.0 101747
03:00+4зсз226838 0.0 101711
06:00+4ссз2269100 0.0 101630
09:00+3сз2392100 1.4 1017323
12:00+2с2499100 6.6 1018281
15:00+5св128261 7.8 1017567
18:00+8юз126230 0.0 1017705
21:00+3ююз36915 0.0 1018111